Location: Codford Saint Peter
(51.1597°N, 2.0531°W)
Time: 20:11:08
(UTC+00:00)

ISS - Visible Passes

Search period start: 16 January 2022 00:00
Search period end: 26 January 2022 00:00
Orbit: 414 x 422 km, 51.6° (Epoch: 16 January)

Date Brightness Start Highest point End Pass type
(mag) Time Alt. Az. Time Alt. Az. Time Alt. Az.
18 Jan -1.4 18:49:26 10° S 18:50:27 15° S 18:50:27 15° S visible
19 Jan -1.6 18:02:32 10° SSE 18:04:10 13° SE 18:04:44 13° SE visible
19 Jan -0.8 19:37:07 10° SW 19:37:42 14° SW 19:37:42 14° SW visible
20 Jan -2.6 18:49:25 10° SW 18:51:55 33° S 18:51:55 33° S visible
21 Jan -2.4 18:01:53 10° SSW 18:04:44 26° SSE 18:06:06 20° ESE visible
21 Jan -1.1 19:37:54 10° WSW 19:39:03 20° WSW 19:39:03 20° WSW visible
22 Jan -1.8 17:14:36 10° S 17:17:00 18° SE 17:19:25 10° E visible
22 Jan -3.6 18:50:03 10° WSW 18:53:11 63° S 18:53:11 63° S visible
23 Jan -3.3 18:02:16 10° SW 18:05:30 49° SSE 18:07:17 23° E visible
23 Jan -1.3 19:38:52 10° W 19:40:13 22° W 19:40:13 22° W visible
24 Jan -3.9 18:50:57 10° W 18:54:18 88° NNW 18:54:18 88° NNW visible
25 Jan -3.8 18:03:04 10° WSW 18:06:25 80° SSE 18:08:22 23° E visible
25 Jan -1.3 19:39:53 10° W 19:41:18 23° W 19:41:18 23° W visible
